3 Gehege Außen am Haus Messungen

Zurück zum Überblick

Zeitpunkt Temperatur Luftfeuchte
26.01.2020 23:26:19 17,6 C 46,0%
26.01.2020 23:19:15 17,9 C 46,0%
26.01.2020 23:12:13 18,0 C 46,0%
26.01.2020 23:10:29 17,6 C 46,0%
26.01.2020 22:58:10 18,0 C 46,0%
26.01.2020 22:51:09 18,0 C 46,0%
26.01.2020 22:49:25 17,8 C 46,0%
26.01.2020 22:09:00 18,3 C 46,0%
26.01.2020 22:01:58 17,8 C 46,0%
26.01.2020 21:54:57 18,1 C 46,0%
26.01.2020 21:53:13 18,2 C 46,0%
26.01.2020 21:40:53 17,9 C 46,0%
26.01.2020 21:39:09 18,2 C 46,0%
26.01.2020 21:19:44 18,0 C 46,0%
26.01.2020 21:12:43 18,3 C 46,0%
26.01.2020 21:05:40 18,5 C 46,0%
26.01.2020 20:58:37 18,1 C 46,0%
26.01.2020 20:51:36 18,4 C 46,0%
26.01.2020 20:44:33 18,7 C 46,0%
26.01.2020 20:37:30 18,3 C 46,0%
26.01.2020 20:30:28 18,2 C 46,0%
26.01.2020 20:23:26 18,5 C 46,0%
26.01.2020 20:16:23 18,7 C 46,0%
26.01.2020 20:09:21 18,1 C 46,0%
26.01.2020 20:07:37 18,3 C 46,0%
26.01.2020 19:55:16 18,6 C 46,0%
26.01.2020 19:48:14 18,4 C 46,0%
26.01.2020 19:41:11 18,1 C 46,0%
26.01.2020 19:34:08 18,3 C 46,0%
26.01.2020 19:27:08 18,5 C 46,0%
26.01.2020 19:20:07 18,1 C 46,0%
26.01.2020 19:18:23 18,4 C 46,0%
26.01.2020 19:06:02 18,7 C 46,0%
26.01.2020 18:59:01 18,3 C 46,0%
26.01.2020 18:52:01 18,3 C 46,0%
26.01.2020 18:44:58 18,5 C 46,0%
26.01.2020 18:37:56 18,7 C 46,0%
26.01.2020 18:30:54 18,2 C 46,0%
26.01.2020 18:23:51 18,4 C 46,0%
26.01.2020 18:16:48 18,7 C 46,0%
26.01.2020 18:09:47 18,4 C 46,0%
26.01.2020 18:02:46 18,4 C 46,0%
26.01.2020 17:55:45 18,7 C 46,0%
26.01.2020 17:48:42 18,8 C 46,0%
26.01.2020 17:41:40 18,4 C 46,0%
26.01.2020 17:34:38 18,5 C 46,0%
26.01.2020 17:27:36 18,8 C 45,0%
26.01.2020 17:25:52 19,0 C 45,0%
26.01.2020 17:13:32 18,4 C 46,0%
26.01.2020 17:06:30 18,5 C 46,0%
26.01.2020 16:59:29 18,7 C 45,0%
26.01.2020 16:52:27 18,9 C 45,0%
26.01.2020 16:45:24 18,6 C 45,0%
26.01.2020 16:38:24 18,7 C 45,0%
26.01.2020 16:31:20 19,0 C 45,0%
26.01.2020 16:24:18 19,0 C 45,0%
26.01.2020 16:17:16 18,7 C 45,0%
26.01.2020 16:10:14 18,8 C 45,0%
26.01.2020 16:03:11 19,0 C 45,0%
26.01.2020 15:56:09 19,2 C 45,0%
26.01.2020 15:49:06 18,7 C 45,0%
26.01.2020 15:42:05 18,8 C 45,0%
26.01.2020 15:35:03 19,0 C 45,0%
26.01.2020 15:28:02 19,2 C 45,0%
26.01.2020 15:21:00 18,9 C 45,0%
26.01.2020 15:13:58 18,9 C 45,0%
26.01.2020 15:06:56 19,0 C 45,0%
26.01.2020 14:59:54 19,2 C 45,0%
26.01.2020 14:52:51 19,3 C 45,0%
26.01.2020 14:45:49 18,8 C 45,0%
26.01.2020 14:38:45 18,9 C 45,0%
26.01.2020 14:31:42 19,1 C 44,0%
26.01.2020 14:24:40 19,3 C 44,0%
26.01.2020 14:17:38 18,9 C 45,0%
26.01.2020 14:10:34 18,8 C 44,0%
26.01.2020 14:03:33 19,0 C 44,0%
26.01.2020 13:56:29 19,2 C 44,0%
26.01.2020 13:49:27 18,9 C 45,0%
26.01.2020 13:42:23 18,8 C 44,0%
26.01.2020 13:35:21 18,9 C 44,0%
26.01.2020 13:28:19 19,1 C 44,0%
26.01.2020 13:21:17 18,8 C 44,0%
26.01.2020 13:14:16 18,7 C 44,0%
26.01.2020 13:07:16 18,9 C 43,0%
26.01.2020 13:05:32 19,0 C 43,0%
26.01.2020 12:32:06 18,6 C 44,0%
26.01.2020 12:25:04 18,5 C 43,0%
26.01.2020 12:18:01 18,8 C 43,0%
26.01.2020 12:10:59 18,7 C 43,0%
26.01.2020 12:09:15 18,3 C 43,0%
26.01.2020 11:56:55 18,5 C 43,0%
26.01.2020 11:55:11 18,7 C 43,0%
26.01.2020 11:42:52 18,1 C 43,0%
26.01.2020 11:41:08 18,3 C 43,0%
26.01.2020 11:21:43 18,0 C 43,0%
26.01.2020 11:14:41 18,3 C 43,0%
26.01.2020 11:07:41 18,3 C 43,0%
26.01.2020 11:00:38 18,0 C 43,0%
26.01.2020 10:58:54 18,3 C 43,0%
26.01.2020 10:46:33 18,0 C 43,0%
26.01.2020 10:39:30 17,8 C 43,0%
26.01.2020 10:37:46 18,1 C 43,0%
26.01.2020 10:25:27 17,7 C 43,0%
26.01.2020 10:23:43 18,0 C 43,0%
26.01.2020 10:11:26 17,9 C 43,0%
26.01.2020 10:04:24 17,5 C 42,0%
26.01.2020 09:57:23 17,9 C 42,0%
26.01.2020 09:50:22 17,5 C 42,0%
26.01.2020 09:43:21 17,5 C 42,0%
26.01.2020 09:36:17 17,7 C 42,0%
26.01.2020 09:34:33 17,3 C 42,0%
26.01.2020 09:22:14 17,7 C 42,0%
26.01.2020 09:15:13 17,4 C 42,0%
26.01.2020 09:08:13 17,6 C 41,0%
26.01.2020 09:01:09 17,5 C 42,0%
26.01.2020 08:54:09 17,0 C 42,0%
26.01.2020 08:47:08 17,4 C 41,0%
26.01.2020 08:40:07 17,0 C 41,0%
26.01.2020 08:33:07 17,3 C 41,0%
26.01.2020 08:26:05 17,0 C 41,0%
26.01.2020 08:19:04 17,2 C 41,0%
26.01.2020 08:12:00 17,2 C 41,0%
26.01.2020 08:04:59 17,3 C 41,0%
26.01.2020 07:57:56 17,4 C 41,0%
26.01.2020 07:50:54 17,2 C 41,0%
26.01.2020 07:43:53 17,6 C 41,0%
26.01.2020 07:36:52 17,3 C 41,0%
26.01.2020 07:29:51 17,4 C 41,0%
26.01.2020 07:22:49 17,5 C 41,0%
26.01.2020 07:15:45 17,1 C 41,0%
26.01.2020 07:08:43 17,5 C 41,0%
26.01.2020 07:01:42 17,5 C 41,0%
26.01.2020 06:54:40 17,1 C 41,0%
26.01.2020 06:47:38 17,5 C 41,0%
26.01.2020 06:40:37 17,3 C 41,0%
26.01.2020 06:33:35 17,3 C 41,0%
26.01.2020 06:26:34 17,6 C 41,0%
26.01.2020 06:19:34 17,1 C 41,0%
26.01.2020 06:12:31 17,2 C 41,0%
26.01.2020 06:05:30 17,4 C 41,0%
26.01.2020 05:58:28 17,0 C 41,0%
26.01.2020 05:51:25 17,5 C 41,0%
26.01.2020 05:44:24 17,3 C 41,0%
26.01.2020 05:37:21 17,1 C 41,0%
26.01.2020 05:30:20 17,5 C 41,0%
26.01.2020 05:23:18 17,1 C 41,0%
26.01.2020 05:16:17 17,0 C 41,0%
26.01.2020 05:09:14 17,4 C 41,0%
26.01.2020 05:02:12 17,0 C 41,0%
26.01.2020 04:55:10 17,3 C 41,0%
26.01.2020 04:48:08 17,1 C 41,0%
26.01.2020 04:41:07 17,1 C 41,0%
26.01.2020 04:34:04 17,4 C 41,0%
26.01.2020 04:27:02 16,8 C 41,0%
26.01.2020 04:20:00 17,1 C 41,0%
26.01.2020 04:12:58 17,0 C 41,0%
26.01.2020 04:05:55 17,1 C 41,0%
26.01.2020 03:58:51 17,1 C 41,0%
26.01.2020 03:51:51 17,0 C 41,0%
26.01.2020 03:44:48 17,3 C 41,0%
26.01.2020 03:37:48 16,9 C 42,0%
26.01.2020 03:30:45 17,2 C 41,0%
26.01.2020 03:23:44 16,9 C 42,0%
26.01.2020 03:16:42 17,2 C 41,0%
26.01.2020 03:09:40 17,1 C 42,0%
26.01.2020 03:02:37 17,0 C 41,0%
26.01.2020 02:55:35 17,3 C 41,0%
26.01.2020 02:48:34 17,1 C 42,0%
26.01.2020 02:41:31 17,3 C 41,0%
26.01.2020 02:34:28 17,0 C 42,0%
26.01.2020 02:27:26 17,4 C 41,0%
26.01.2020 02:20:25 17,3 C 42,0%
26.01.2020 02:13:24 17,0 C 42,0%
26.01.2020 02:06:23 17,4 C 41,0%
26.01.2020 01:59:21 17,0 C 42,0%
26.01.2020 01:52:17 17,2 C 42,0%
26.01.2020 01:45:16 17,5 C 42,0%
26.01.2020 01:38:12 16,8 C 42,0%
26.01.2020 01:31:10 17,2 C 42,0%
26.01.2020 01:24:08 17,0 C 42,0%
26.01.2020 01:17:07 17,2 C 42,0%
26.01.2020 01:10:05 17,1 C 42,0%
26.01.2020 01:03:03 17,0 C 42,0%
26.01.2020 00:56:00 17,2 C 42,0%
26.01.2020 00:48:58 17,1 C 42,0%
26.01.2020 00:41:56 17,5 C 42,0%
26.01.2020 00:34:54 17,0 C 42,0%
26.01.2020 00:27:54 17,3 C 41,0%
26.01.2020 00:20:52 17,2 C 42,0%
26.01.2020 00:13:51 17,0 C 42,0%
26.01.2020 00:12:07 17,5 C 42,0%